Hourly Data Report for May 06, 2019

MIRAMICHI RCS
NEW BRUNSWICK
Current Station Operator: ECCC - MSC

47°00'34.000" N
65°27'54.000" W
33.00 m
8100989
71744
ACQ

Download Data

Hourly Data (May 2019)
Hourly Data Report for May 6, 2019
TIME
LST
Temp Definition
°C
Dew Point Definition
°C
Rel Hum Definition
%
Precip. Amount Definition
mm

Wind Dir Definition
10's deg

Wind Spd Definition
km/h
Visibility Definition
km
Stn Press Definition
kPa
Hmdx Definition


Wind Chill Definition


Weather Definition


00:00 4.6 1.4 80 0.0 7 9   101.29     LegendNANA
01:00 4.3 1.1 80 0.0 6 9   101.26     LegendNANA
02:00 3.5 2.0 90 0.0 5 7   101.28     LegendNANA
03:00 3.0 1.5 90 0.0 3 6   101.29     LegendNANA
04:00 3.0 1.5 90 0.0 4 9   101.31     LegendNANA
05:00 2.5 1.1 90 0.0 5 6   101.31     LegendNANA
06:00 3.6 1.9 89 0.0 5 6   101.39     LegendNANA
07:00 6.5 3.2 79 0.0 7 7   101.44     LegendNANA
08:00 8.4 3.6 72 0.0 7 6   101.45     LegendNANA
09:00 11.3 3.8 60 0.0 7 7   101.43     LegendNANA
10:00 13.9 3.9 51 0.0 7 10   101.43     LegendNANA
11:00 15.5 4.3 47 0.0 7 13   101.41     LegendNANA
12:00 16.2 4.8 47 0.0 6 16   101.37     LegendNANA
13:00 16.5 4.6 45 0.0 4 16   101.34     LegendNANA
14:00 17.5 5.1 44 0.0 5 16   101.27     LegendNANA
15:00 18.9 1.9 32 0.0 9 18   101.24     LegendNANA
16:00 18.3 0.2 29 0.0 10 21   101.22     LegendNANA
17:00 17.3 -0.8 29 0.0 9 20   101.26     LegendNANA
18:00 16.2 -0.1 33 0.0 10 22   101.23     LegendNANA
19:00 14.0 -0.1 38 0.0 10 15   101.26     LegendNANA
20:00 10.1 -0.1 49 0.0 10 11   101.30     LegendNANA
21:00 8.8 -0.5 52 0.0 8 8   101.35     LegendNANA
22:00 7.5 -0.1 58 0.0 8 4   101.35     LegendNANA
23:00 4.8 0.5 74 0.0 35 2   101.33     LegendNANA

Notes on Data Quality.

Legend

  • E = Estimated
  • M = Missing
  • NA = Not Available*
  • [empty] = Indicates an unobserved value
Date modified: